RH
40 42 48 48 44 44 50 59 61 60 54 54 60 54 53 52 45 39 35 33 32 31 32 36 43 48 52 51 49 43 36 30
40 41 45 48 54 51 55 62 64 63 63 59 55 50 50 48 42 38 35 33 34 37 42 48 54 56 52 45 42 41 36 33
43 39 39 42 48 47 56 63 62 61 59 57 55 55 56 51 42 39 37 37 41 48 53 55 54 56 48 47 41 35 32 33
42 41 39 41 46 49 68 63 63 59 59 60 60 60 58 49 44 41 40 44 48 50 52 52 52 51 43 38 38 37 34 35
40 41 42 43 49 66 61 64 61 62 64 60 60 55 50 48 47 46 47 51 54 57 61 59 57 39 35 36 37 36 36 37
40 39 43 54 61 63 63 59 58 64 61 61 55 53 53 52 52 52 54 57 60 60 59 59 44 36 37 39 37 37 41 43
46 48 54 63 65 71 62 58 61 63 63 58 54 55 55 55 58 61 64 66 68 64 65 52 44 44 40 39 41 42 42 46
52 54 56 67 65 61 51 51 57 60 57 54 57 60 63 65 66 68 71 69 71 67 66 58 48 51 45 49 47 46 52 52
51 51 59 58 58 53 53 51 54 53 53 56 63 66 67 68 71 74 73 73 74 66 72 55 53 48 47 48 47 52 51 51
44 45 50 54 52 51 50 48 51 51 56 59 64 68 71 72 75 74 73 74 77 75 56 56 59 49 49 49 51 53 52 48
40 42 40 39 39 41 41 45 49 54 59 62 65 67 70 73 73 79 83 78 70 59 60 58 54 53 59 62 58 57 55 55
32 33 32 31 35 37 38 40 44 49 54 60 66 71 72 75 82 77 72 70 75 69 59 63 64 68 61 57 63 59 59 65
31 31 31 33 34 34 34 38 44 48 55 61 63 66 70 71 69 68 69 75 74 68 64 67 67 64 61 65 63 69 72 70
35 38 37 37 37 39 42 41 51 65 68 68 67 65 63 62 63 68 71 70 70 69 71 72 73 66 66 73 76 75 78 70
40 42 40 40 44 50 50 54 64 74 73 65 61 62 63 66 68 68 69 71 74 78 74 75 70 73 79 76 74 80 78 67
41 42 44 43 49 51 57 70 76 74 63 59 63 68 69 68 69 70 74 76 79 77 79 75 80 79 77 83 77 76 72 61
39 42 42 43 47 53 64 63 61 59 59 65 71 72 69 69 73 75 77 79 85 88 81 80 77 78 78 75 73 64 65 58
36 34 32 35 41 47 48 50 57 62 68 71 71 69 72 75 75 76 79 85 89 88 83 80 78 73 67 66 58 54 52 50
37 35 35 34 36 42 49 56 64 70 72 68 71 75 74 72 74 78 83 87 92 83 79 75 65 60 57 52 48 48 47 50